クリステンセン彗星

C/2006 W3 ( Christensen )

English version
Home page
Total 6,336 html files since Dec. 4, 1995
Updated on April 6, 2008

---------------------------------------------------------------------

・ プロフィール

発見日 2006年11月18日
発見光度 18.1等
発見者 E. J. Christensen (Catalina Sky Survey)

・ 写真集

・ 軌道要素

The following orbital elements are taken from MPC 61436:

Epoch 2009 June 18.0 TT = JDT 2455000.5
T 2009 July 6.6618 TT                                   MPC
q   3.126204             (2000.0)            P               Q
z  -0.000011       Peri.  133.5190      +0.6760445      -0.0904784
 +/-0.000003       Node   113.5726      -0.6488019      -0.5435597
e   1.000035       Incl.  127.0735      +0.3493136      -0.8344798
From 284 observations 2006 Oct. 29-2007 Dec. 16, mean residual 0".6.

・ 星図

・ 光度変化

        m1 = 4.2 + 5 logΔ + 10.0 log r

---------------------------------------------------------------------

軌道要素はMPCのEphemerides and Orbital Elementsに掲載されたものです。
星図は StellaNavigator Ver.2.0 for Windows (アストロアーツ 編著 / アスキー出版局刊) で作成したものです。
光度グラフはComet for Windowsで作成したものです。

---------------------------------------------------------------------

Copyright(C) 1995-2008 Seiichi Yoshida (comet@aerith.net). All rights reserved.